Total_Precipitation_Accumulation
0.68 0.71 0.77 0.87 0.85 0.84 0.81 0.76 0.72 0.73 0.80 0.82 0.82 0.88 0.92 0.94 0.95 1.02 1.01 0.97 0.95 0.92 0.88 0.90 0.91 0.94 1.01 1.00 0.97 0.94 0.91 0.99 1.01 0.53 0.38 0.42 0.52 0.56 0.56 0.53 0.48 0.47 0.49
0.69 0.71 0.73 0.84 0.92 0.90 0.94 0.92 0.82 0.74 0.76 0.82 0.86 0.88 0.96 1.01 1.00 1.04 1.08 1.09 1.13 1.10 1.01 0.97 0.97 0.98 1.05 1.08 1.15 1.12 1.03 0.96 1.02 0.82 0.53 0.51 0.61 0.67 0.69 0.67 0.62 0.56 0.51
0.69 0.73 0.76 0.80 0.89 0.91 0.94 1.01 1.00 0.97 0.98 0.98 1.01 1.05 1.09 1.13 1.17 1.19 1.21 1.27 1.33 1.33 1.27 1.22 1.12 1.09 1.14 1.12 1.16 1.19 1.12 1.04 1.00 0.96 0.74 0.64 0.66 0.68 0.76 0.77 0.75 0.73 0.66
0.66 0.77 0.79 0.82 0.83 0.87 0.92 0.98 1.10 1.18 1.26 1.31 1.29 1.29 1.30 1.36 1.48 1.56 1.54 1.54 1.50 1.47 1.44 1.41 1.35 1.28 1.26 1.26 1.28 1.23 1.17 1.18 1.13 1.10 0.96 0.82 0.79 0.75 0.84 0.90 0.92 0.88 0.82
0.62 0.72 0.78 0.84 0.94 1.00 1.03 1.06 1.10 1.24 1.33 1.34 1.37 1.39 1.38 1.55 1.84 1.96 1.81 1.61 1.48 1.41 1.35 1.34 1.38 1.47 1.48 1.52 1.59 1.47 1.37 1.41 1.36 1.29 1.15 0.96 0.85 0.87 0.92 0.93 1.05 1.01 0.96
0.60 0.67 0.74 0.88 0.99 1.11 1.14 1.19 1.21 1.26 1.35 1.37 1.35 1.37 1.34 1.45 1.86 1.98 1.62 1.30 1.23 1.28 1.28 1.20 1.19 1.35 1.42 1.49 1.62 1.62 1.62 1.67 1.66 1.55 1.38 1.19 0.95 0.89 0.97 1.13 1.25 1.34 1.26
0.51 0.62 0.69 0.82 0.95 1.05 1.08 1.12 1.16 1.10 1.09 1.19 1.26 1.21 1.17 1.25 1.59 1.69 1.40 1.01 0.92 1.01 1.06 1.05 1.02 1.08 1.27 1.24 1.33 1.38 1.45 1.58 1.72 1.76 1.72 1.41 1.16 1.05 1.22 1.38 1.40 1.47 1.39
0.46 0.59 0.62 0.71 0.86 0.92 0.98 1.03 1.04 0.98 0.95 1.06 1.09 1.01 0.94 0.98 1.30 1.44 1.24 0.89 0.84 0.89 0.94 0.95 0.93 0.94 1.10 1.28 1.32 1.21 1.14 1.25 1.47 1.63 1.77 1.60 1.41 1.39 1.60 1.81 1.85 1.83 1.68
0.41 0.50 0.56 0.64 0.79 0.81 0.87 0.97 0.96 0.97 0.94 0.92 0.92 0.87 0.80 0.81 1.08 1.36 1.24 0.85 0.88 0.89 0.90 0.95 0.91 0.85 1.12 1.31 1.30 1.21 1.09 1.09 1.21 1.49 1.65 1.70 1.72 1.81 1.98 2.26 2.39 2.42 2.26
0.40 0.46 0.50 0.54 0.68 0.70 0.71 0.78 0.82 0.84 0.87 0.88 0.85 0.80 0.77 0.73 0.91 1.27 1.31 0.91 0.88 0.87 0.88 0.93 1.06 1.04 1.19 1.26 1.18 1.20 1.23 1.08 0.97 1.04 1.15 1.23 1.27 1.37 1.69 1.95 2.20 2.44 2.39
0.34 0.40 0.45 0.49 0.56 0.59 0.62 0.65 0.70 0.75 0.79 0.83 0.84 0.77 0.69 0.70 0.77 1.05 1.39 1.14 0.94 0.86 0.87 0.92 0.96 1.11 1.15 1.21 1.24 1.22 1.32 1.16 0.98 1.03 1.07 1.05 1.08 1.18 1.34 1.58 1.93 2.23 2.42
0.32 0.38 0.42 0.47 0.50 0.53 0.57 0.63 0.64 0.72 0.82 0.84 0.82 0.80 0.73 0.69 0.75 0.93 1.20 1.30 1.14 0.95 0.90 0.79 0.82 0.99 1.04 1.14 1.16 1.21 1.25 1.20 1.12 1.14 1.12 1.09 1.10 1.17 1.26 1.38 1.61 1.86 2.04
0.32 0.36 0.43 0.46 0.45 0.52 0.59 0.66 0.69 0.74 0.83 0.85 0.81 0.79 0.77 0.75 0.81 1.01 1.03 1.09 1.17 1.04 0.98 1.01 0.93 0.97 1.00 0.98 1.02 1.12 1.13 1.06 1.15 1.15 1.06 1.00 1.00 1.09 1.15 1.24 1.34 1.53 1.73
0.31 0.35 0.41 0.48 0.49 0.49 0.56 0.64 0.69 0.74 0.87 0.92 0.89 0.85 0.78 0.77 0.90 1.12 1.06 0.99 1.08 1.08 1.07 1.05 1.01 1.01 1.00 0.95 0.96 0.96 0.94 0.98 1.07 1.06 0.96 0.87 0.88 0.99 1.11 1.22 1.33 1.43 1.63
0.30 0.34 0.40 0.50 0.54 0.51 0.53 0.59 0.66 0.69 0.89 1.06 0.98 0.98 0.96 0.97 1.07 1.28 1.28 1.21 1.23 1.24 1.24 1.21 1.12 1.08 1.07 0.98 0.92 0.87 0.89 0.95 0.99 0.93 0.90 0.89 0.89 0.96 1.05 1.13 1.31 1.42 1.56
0.35 0.38 0.42 0.51 0.54 0.53 0.53 0.57 0.65 0.68 0.75 0.79 0.86 0.95 0.94 1.04 1.11 1.08 1.15 1.20 1.22 1.27 1.29 1.24 1.05 0.95 0.93 0.89 0.87 0.86 0.83 0.82 0.81 0.85 0.89 0.88 0.91 0.96 1.00 1.05 1.22 1.39 1.45
0.39 0.43 0.47 0.52 0.53 0.54 0.52 0.55 0.61 0.60 0.62 0.66 0.72 0.81 0.92 1.01 0.96 0.95 1.02 1.04 1.05 1.05 1.03 0.93 0.85 0.85 0.83 0.82 0.81 0.80 0.81 0.74 0.74 0.81 0.84 0.83 0.87 0.93 0.97 1.01 1.08 1.22 1.29
0.39 0.46 0.51 0.52 0.53 0.52 0.50 0.51 0.57 0.62 0.68 0.71 0.76 0.82 0.90 0.96 0.95 0.95 1.01 1.05 1.05 0.96 0.84 0.81 0.80 0.79 0.79 0.80 0.81 0.81 0.79 0.77 0.79 0.82 0.82 0.83 0.87 0.95 0.97 0.96 0.99 1.10 1.18
0.43 0.47 0.51 0.53 0.52 0.49 0.48 0.50 0.52 0.57 0.66 0.76 0.82 0.89 0.96 0.96 0.94 0.95 0.95 0.92 0.90 0.87 0.82 0.78 0.75 0.75 0.78 0.82 0.84 0.83 0.84 0.83 0.80 0.83 0.84 0.83 0.85 0.92 0.93 0.86 0.89 1.02 1.14
0.46 0.56 0.60 0.57 0.55 0.51 0.50 0.53 0.55 0.60 0.66 0.73 0.83 0.89 1.00 1.04 0.98 0.96 0.87 0.83 0.87 0.86 0.83 0.82 0.77 0.75 0.81 0.86 0.90 0.90 0.90 0.86 0.83 0.84 0.80 0.77 0.79 0.83 0.85 0.82 0.84 0.92 0.99
0.51 0.54 0.61 0.60 0.58 0.57 0.59 0.60 0.61 0.65 0.71 0.73 0.77 0.87 1.12 1.13 0.97 0.83 0.79 0.77 0.81 0.86 0.85 0.84 0.83 0.83 0.85 0.89 0.90 0.89 0.90 0.85 0.82 0.83 0.82 0.78 0.77 0.78 0.77 0.79 0.80 0.83 0.88
0.54 0.56 0.55 0.57 0.62 0.66 0.69 0.67 0.68 0.70 0.72 0.76 0.78 0.83 0.93 0.87 0.80 0.76 0.74 0.73 0.74 0.78 0.83 0.90 0.89 0.84 0.86 0.91 0.93 0.91 0.86 0.80 0.74 0.75 0.78 0.76 0.75 0.74 0.73 0.75 0.75 0.78 0.82
0.58 0.60 0.59 0.60 0.64 0.71 0.71 0.65 0.68 0.71 0.76 0.80 0.80 0.82 0.81 0.80 0.78 0.74 0.74 0.74 0.74 0.73 0.76 0.84 0.87 0.81 0.77 0.80 0.84 0.88 0.87 0.79 0.71 0.72 0.79 0.79 0.74 0.70 0.71 0.71 0.69 0.73 0.78
0.60 0.60 0.62 0.66 0.68 0.69 0.70 0.69 0.70 0.73 0.80 0.86 0.86 0.84 0.83 0.81 0.79 0.73 0.70 0.72 0.72 0.71 0.72 0.78 0.79 0.76 0.73 0.75 0.76 0.76 0.76 0.77 0.79 0.78 0.78 0.78 0.74 0.69 0.71 0.72 0.70 0.69 0.73
0.59 0.61 0.64 0.71 0.75 0.74 0.76 0.75 0.75 0.77 0.82 0.87 0.88 0.86 0.83 0.80 0.76 0.72 0.69 0.69 0.72 0.72 0.70 0.72 0.74 0.74 0.71 0.69 0.71 0.73 0.81 0.89 0.94 1.01 1.08 1.07 0.93 0.79 0.77 0.76 0.73 0.69 0.71
0.58 0.61 0.66 0.74 0.80 0.80 0.81 0.82 0.79 0.80 0.87 0.88 0.86 0.86 0.84 0.82 0.78 0.76 0.74 0.74 0.77 0.76 0.72 0.68 0.68 0.72 0.72 0.69 0.70 0.76 0.84 0.90 1.01 1.21 1.38 1.41 1.15 0.88 0.78 0.79 0.72 0.70 0.73